Location: Bussy-Saint-Georges
(48.8410°N, 2.7017°E)
Time: 22:55:48
(UTC+00:00)

Resurs 01 Rocket - Pass Details

Date: 18 October 2021
Orbit: 635 x 643 km, 97.9° (Epoch: 07 December)

Event Time Altitude Azimuth Distance (km) Brightness Sun altitude
Exits shadow 19:13:28 13° 19° (NNE) 1,861 3.9 -23.7°
Drops below altitude 10° 19:14:04 10° 13° (NNE) 2,037 4.2 -23.8°
Sets 19:16:41 0° 358° (N) 2,953 5.2 -24.2°
